Weather History for Kinloss, United Kingdom

Change the Weather History Date:

Monday, November 26, 2012

  Actual Average Record
Temperature  
Mean Temperature 42 °F -  
Max Temperature 43 °F 44 °F 57 °F (2011)
Min Temperature 41 °F 34 °F 30 °F (1996)
Degree Days  
Heating Degree Days 23    
Moisture  
Dew Point 39 °F    
Average Humidity 86    
Maximum Humidity 93    
Minimum Humidity 73    
Precipitation  
Precipitation 0.12 in 0.07 in - ()
Sea Level Pressure  
Sea Level Pressure 29.80 in    
Wind  
Wind Speed 10 mph ()    
Max Wind Speed 24 mph    
Max Gust Speed -    
Visibility 7.7 miles    
Events Rain    
Averages and records for this station are not official NWS values.
T = Trace of Precipitation, MM = Missing Value Source: Averaged Metar Reports

Daily Weather History Graph

Daily Weather History Graph

Search for Another Location

Airport:

Trip Planner

Search our weather history database for the weather conditions in past years. The results will help you decide how hot, cold, wet, or windy it might be!

Date:

Astronomy

Nov. 26, 2012 Rise Set
Actual Time 8:22 AM GMT 3:40 PM GMT
Civil Twilight 7:35 AM GMT 4:27 PM GMT
Nautical Twilight 6:45 AM GMT 5:17 PM GMT
Astronomical Twilight 5:58 AM GMT 6:03 PM GMT
Moon 2:37 PM GMT (11/26) 6:02 AM GMT (11/26)
Length of Visible Light 8h 52m
Length of Day
7h 17m
Waxing Gibbous, 96% of the Moon is Illuminated
Nov 26
Waxing Gibbous
Nov 28
Full
Dec 6
Last Quarter
Dec 13
New
Dec 20
First Quarter

Hourly Weather History & Observations

Time (GMT) Temp. Windchill Dew Point Humidity Pressure Visibility Wind Dir Wind Speed Gust Speed Precip Events Conditions
12:50 AM 42.8 °F 37.0 °F 39.2 °F 87% 29.68 in 3.1 mi North 10.4 mph - N/A Rain Rain
1:50 AM 42.8 °F 37.0 °F 41.0 °F 93% 29.68 in 6.2 mi NNW 10.4 mph - N/A   Mostly Cloudy
2:50 AM 42 °F - 39 °F 86% 29.71 in 14 mi WNW 8.1 mph - - Rain Light Rain
2:50 AM 41.0 °F 35.8 °F 39.2 °F 93% 29.71 in 6.2 mi WNW 8.1 mph - N/A Rain Light Rain
3:50 AM 41.0 °F - 39.2 °F 93% 29.71 in 3.7 mi NE 1.2 mph - N/A Rain Rain
4:50 AM 42.8 °F 37.5 °F 37.4 °F 81% 29.71 in 6.2 mi North 9.2 mph - N/A   Mostly Cloudy
5:50 AM 42 °F - 39 °F 85% 29.75 in 17 mi NNW 9.2 mph - - Rain Rain
5:50 AM 42.8 °F 37.5 °F 39.2 °F 87% 29.74 in 6.2 mi NNW 9.2 mph - N/A   Mostly Cloudy
6:50 AM 42.8 °F 37.0 °F 39.2 °F 87% 29.74 in 6.2 mi NW 10.4 mph - N/A   Overcast
7:50 AM 41.0 °F 35.8 °F 39.2 °F 93% 29.77 in 6.2 mi NW 8.1 mph - N/A   Overcast
8:50 AM 42 °F - 39 °F 85% 29.79 in 19 mi NW 9.2 mph - -   Mostly Cloudy
8:53 AM 42.8 °F 37.5 °F 39.2 °F 87% 29.77 in 6.2 mi NW 9.2 mph - N/A   Mostly Cloudy
9:50 AM 42.8 °F 37.5 °F 39.2 °F 87% 29.80 in 6.2 mi NW 9.2 mph - N/A   Mostly Cloudy
10:50 AM 42.8 °F 37.0 °F 39.2 °F 87% 29.80 in 6.2 mi NW 10.4 mph - N/A   Mostly Cloudy
11:50 AM 43 °F - 39 °F 80% 29.81 in 28 mi NW 9.2 mph - -   Mostly Cloudy
11:50 AM 42.8 °F 37.5 °F 39.2 °F 87% 29.80 in 6.2 mi NW 9.2 mph - N/A   Scattered Clouds
12:50 PM 42.8 °F 38.0 °F 39.2 °F 87% 29.80 in 6.2 mi NW 8.1 mph - N/A   Scattered Clouds
1:50 PM 42.8 °F 38.6 °F 39.2 °F 87% 29.80 in 6.2 mi NW 6.9 mph - N/A   Mostly Cloudy
2:50 PM 42 °F - 38 °F 79% 29.83 in 22 mi WNW 8.1 mph - -   Partly Cloudy
2:50 PM 41.0 °F 35.8 °F 37.4 °F 87% 29.80 in 6.2 mi WNW 8.1 mph - N/A   Scattered Clouds
3:50 PM 42.8 °F 38.0 °F 39.2 °F 87% 29.83 in 6.2 mi WNW 8.1 mph - N/A   Mostly Cloudy
4:50 PM 42.8 °F 36.6 °F 39.2 °F 87% 29.83 in 6.2 mi NW 11.5 mph - N/A Rain Light Rain
5:50 PM 42 °F - 39 °F 85% 29.84 in 17 mi NW 11.5 mph - - Rain Rain
5:50 PM 42.8 °F 36.6 °F 39.2 °F 87% 29.83 in 6.2 mi NW 11.5 mph - N/A   Mostly Cloudy
6:50 PM 42.8 °F 34.8 °F 39.2 °F 87% 29.83 in 6.2 mi NNW 17.3 mph - N/A   Scattered Clouds
7:50 PM 41.0 °F 30.9 °F 39.2 °F 93% 29.86 in 3.7 mi NNW 24.2 mph - N/A Rain Rain
8:50 PM 42 °F - 38 °F 79% 29.88 in 17 mi NNW 20.7 mph - - Rain Light Rain
8:50 PM 41.0 °F 31.6 °F 37.4 °F 87% 29.86 in 6.2 mi NNW 20.7 mph - N/A   Mostly Cloudy
9:50 PM 42.8 °F 34.3 °F 37.4 °F 81% 29.89 in 6.2 mi North 19.6 mph - N/A   Mostly Cloudy
10:50 PM 42.8 °F 33.8 °F 37.4 °F 81% 29.89 in 6.2 mi North 21.9 mph - N/A Rain Light Rain
11:50 PM 42 °F - 36 °F 73% 29.92 in 25 mi NNW 19.6 mph - - Rain Rain
11:50 PM 42.8 °F 34.3 °F 35.6 °F 76% 29.92 in 6.2 mi NNW 19.6 mph - N/A   Mostly Cloudy